Overview Statistics Trail Chart Weather Telemetry Raw packets
 

This is the latest recevied weather packets stored in our database for station/object W8KHW. If no packets are shown the sender has not sent any weather packets the latest 10 day(s).

<< 11 12 13 14 15 16 17 >>
Time Temp. Humidity Pressure Rain* Wind** Luminosity Snow
1777757897 8.89° C 49% 1017.7 hPa 0 mm - - -
1777757397 8.89° C 46% 1017.5 hPa 0 mm - - -
1777756897 9.44° C 49% 1017.2 hPa 0 mm - - -
1777756397 9.44° C 51% 1017.3 hPa 0 mm - - -
1777755897 8.89° C 48% 1017.5 hPa 0 mm - - -
1777755396 8.89° C 48% 1017.5 hPa 0 mm - - -
1777754896 9.44° C 49% 1017.4 hPa 0 mm - - -
1777754396 9.44° C 50% 1017.4 hPa 0 mm - - -
1777753896 9.44° C 51% 1017.4 hPa 0 mm - - -
1777753395 9.44° C 48% 1017.6 hPa 0 mm - - -
1777752895 9.44° C 50% 1017.6 hPa 0 mm - - -
1777752395 10° C 51% 1017.5 hPa 0 mm - - -
1777751894 9.44° C 46% 1017.4 hPa 0 mm - - -
1777751394 10° C 48% 1017.7 hPa 0 mm - - -
1777750894 8.89° C 48% 1017.8 hPa 0 mm - - -
1777750394 9.44° C 48% 1017.8 hPa 0 mm - - -
1777749893 10° C 45% 1017.5 hPa 0 mm - - -
1777749393 10° C 49% 1018 hPa 0 mm - - -
1777748893 8.89° C 50% 1017.7 hPa 0 mm - - -
1777748393 10.56° C 48% 1018 hPa 0 mm - - -
1777747893 9.44° C 51% 1017.8 hPa 0 mm - - -
1777747393 9.44° C 49% 1017.9 hPa 0 mm - - -
1777746892 9.44° C 49% 1018 hPa 0 mm - - -
1777746392 9.44° C 53% 1018 hPa 0 mm - - -
1777745892 9.44° C 48% 1017.9 hPa 0 mm - - -

* Rain latest hour (hover to see other rain measurements)
** Current wind speed in m/s (hover to see current wind gust speed)